Tracking 28920 objects as of 26-May-2024
HD Live streaming from Space Station
objects crossing your sky now

STARLINK-6060

Track STARLINK-6060 now!
10-day predictions
STARLINK-6060 is classified as:


NORAD ID: 56794
Int'l Code: 2023-078AD
Perigee: 577.4 km
Apogee: 580.9 km
Inclination: 70.0 °
Period: 96.1 minutes
Semi major axis: 6950 km
RCS: Unknown
Launch date: May 31, 2023
Source: United States (US)
Launch site: AIR FORCE WESTERN TEST RANGE (AFWTR)
Your satellite tracking list
Your tracking list is empty




NASA's NSSDC Master Catalog

Two Line Element Set (TLE):
1 56794U 23078AD  24146.77466846  .00001327  00000-0  11892-3 0  9993
2 56794  69.9993 170.6667 0002475 269.3002  90.7874 14.98344743 55632
Source of the keplerian elements: AFSPC